Theta_e
313 314 315 315 315 314 315 317 317 315 313 311 312 314 313 312 310 306 311 307 310 313 313 312 312 316 322 321 323 319 320 321 325 326 328 325 324 320 321 325 328 330 328 329 333
310 311 313 314 313 314 315 314 315 317 316 313 311 311 313 312 309 311 306 303 305 313 320 320 316 321 319 322 322 322 318 318 319 325 328 326 324 326 323 325 328 330 332 332 333
309 309 310 311 313 314 314 315 313 313 318 317 312 311 313 311 309 307 308 308 304 306 320 323 322 322 322 321 322 322 321 319 322 323 323 325 324 325 321 324 323 326 327 330 331
310 307 307 309 311 312 313 313 315 314 312 317 316 312 314 310 307 314 319 316 314 307 318 323 323 322 322 321 320 327 324 322 323 323 322 323 323 324 324 321 321 321 322 330 329
309 309 309 308 309 310 310 311 312 313 313 313 317 314 314 313 310 309 316 311 317 316 320 320 322 320 321 320 319 321 321 323 321 319 320 319 320 320 323 321 321 326 328 329 329
308 307 307 307 308 308 309 309 310 310 313 313 313 316 314 314 311 311 309 308 319 316 321 319 320 318 319 319 314 313 316 318 318 320 319 321 320 320 320 318 321 327 327 328 328
306 307 306 306 306 306 306 307 308 308 309 312 313 316 315 313 312 308 308 308 319 315 319 319 319 320 318 320 317 317 318 317 317 318 319 319 320 320 319 320 320 320 323 326 327
306 306 306 305 305 305 306 307 306 307 308 310 312 313 318 314 313 312 309 308 311 317 317 317 318 319 319 318 319 320 318 314 313 317 318 318 314 317 315 318 318 316 315 316 318
305 305 305 305 304 303 304 306 305 305 307 308 312 312 317 314 313 312 312 309 315 320 317 318 318 319 319 319 318 317 312 316 314 315 318 319 318 316 314 314 315 313 312 313 313
303 303 303 304 303 303 303 303 304 306 306 308 311 314 314 314 313 313 312 312 318 320 320 317 315 315 316 320 310 317 317 315 312 313 317 318 318 317 315 314 314 312 311 311 311
302 303 303 303 303 302 303 304 305 306 307 309 312 312 313 313 312 311 312 311 311 319 321 319 318 316 313 317 314 314 317 315 315 315 318 316 317 316 313 311 311 310 309 310 311
301 302 302 303 303 303 302 304 304 305 306 306 307 311 311 312 314 310 311 311 312 316 317 320 319 313 312 315 317 316 317 316 315 314 316 315 315 313 311 311 311 311 309 309 310
300 301 302 303 301 303 304 304 303 304 306 307 307 307 312 312 314 313 310 309 312 317 318 315 313 313 315 317 320 319 316 315 314 316 315 315 312 309 310 311 310 309 309 309 309
300 300 301 302 302 302 303 303 303 303 306 304 308 308 310 312 314 312 309 310 313 315 316 317 313 313 314 316 318 319 317 314 316 315 313 312 306 301 307 307 312 310 309 309 310
299 299 300 300 302 302 301 302 302 301 306 303 305 307 308 310 313 314 311 311 314 313 315 315 314 313 314 314 316 314 316 318 315 316 316 313 315 310 311 311 310 310 309 308 309
298 299 300 300 299 301 301 301 301 303 305 305 306 309 310 310 311 311 311 311 311 314 314 312 312 312 312 312 315 313 315 316 315 316 319 313 312 307 305 309 312 311 310 309 308
298 298 299 300 299 301 301 302 303 304 303 307 309 309 309 311 311 313 314 314 314 316 316 313 313 313 313 315 314 314 315 310 318 319 315 309 313 310 308 310 310 311 308 307 305
297 298 298 299 299 300 301 302 304 302 301 305 307 308 309 308 309 311 313 314 313 314 316 318 317 313 312 314 316 318 316 312 311 314 314 310 315 313 310 309 310 310 311 307 306
297 298 298 298 299 300 301 303 303 298 300 302 307 309 309 308 307 310 311 312 312 313 315 317 317 311 312 313 314 318 319 311 310 303 308 311 310 310 310 309 309 308 307 307 306
297 297 298 298 300 300 301 302 301 301 302 301 299 305 309 309 309 309 310 311 312 313 312 311 316 310 312 312 313 315 313 318 315 314 313 312 311 311 312 310 308 309 307 304 303
297 297 296 298 300 299 300 301 299 300 302 303 301 299 304 308 309 309 309 308 311 313 314 312 312 311 312 316 316 316 317 315 315 316 315 312 310 306 309 310 310 308 304 303 302
296 297 297 297 299 300 300 299 300 299 300 302 302 302 301 305 308 308 309 308 309 311 314 313 315 310 313 311 312 314 315 315 316 313 316 310 311 307 306 306 308 305 304 302 302
296 297 296 298 300 299 298 298 299 298 298 300 299 302 302 302 307 308 308 306 307 310 312 313 313 316 314 311 310 315 314 313 313 310 315 317 314 307 308 306 305 305 304 304 303
294 297 297 298 296 297 294 293 299 297 298 298 299 301 302 302 302 302 303 306 307 309 311 311 312 314 313 310 310 315 314 313 314 317 315 314 312 309 308 307 305 305 305 305 304
294 292 290 299 297 296 295 293 297 297 297 298 296 300 300 300 300 300 301 301 304 309 310 311 312 310 310 309 311 313 313 313 315 315 315 314 312 311 308 307 307 305 304 304 303
294 294 294 285 297 298 297 295 296 297 298 297 295 298 301 299 300 298 305 308 309 308 310 310 312 309 309 310 310 309 312 313 314 314 313 312 311 309 307 307 306 305 305 305 303
291 292 293 296 297 297 295 295 295 294 296 297 298 298 301 300 300 299 301 302 302 307 309 310 311 311 312 309 310 311 310 311 313 313 313 314 312 310 305 308 308 306 305 304 299
Wind_Speed
16 16 18 17 16 16 13 16 16 15 13 11 10 10 9 10 12 13 11 11 7 12 15 14 9 7 5 4 3 2 4 1 3 5 3 2 2 3 0 4 1 2 1 1 8
16 15 15 17 18 17 16 15 13 16 16 13 11 10 8 9 11 16 21 15 14 9 4 2 0 1 2 2 2 4 3 7 3 2 0 2 1 2 2 2 1 2 1 1 17
16 16 16 17 16 16 17 15 15 13 16 15 12 9 6 4 5 7 6 9 21 14 7 2 3 3 3 1 3 4 6 4 3 1 2 4 4 2 5 3 4 3 2 4 12
20 21 18 17 17 15 14 16 16 14 14 15 14 10 6 3 6 2 5 14 8 17 11 5 3 5 4 5 3 4 6 5 2 2 3 3 4 5 3 4 5 3 2 6 8
22 21 20 20 16 14 14 15 15 16 16 14 15 12 7 3 8 7 8 15 2 13 14 5 5 5 6 4 2 4 4 4 5 4 4 3 6 6 5 7 1 3 4 7 8
22 21 21 20 17 15 14 13 13 14 16 15 14 17 8 12 13 16 19 16 3 16 11 7 4 4 4 3 5 2 5 2 3 4 4 4 5 4 6 2 6 3 6 7 8
22 21 21 20 18 15 16 14 14 14 14 16 17 18 15 14 9 5 8 4 3 15 5 12 1 0 3 2 5 1 1 3 4 4 5 3 8 9 8 4 6 7 6 6 11
23 23 23 23 21 19 16 15 14 14 13 15 15 14 10 21 32 15 3 0 4 7 8 11 5 1 1 2 4 2 2 1 3 9 6 8 11 3 6 6 11 8 8 8 8
24 24 24 24 22 20 20 16 16 16 14 13 10 6 8 16 21 32 28 6 1 4 10 3 4 3 2 4 2 2 3 5 5 9 5 9 8 4 6 9 9 8 8 6 8
24 24 24 24 23 19 16 17 19 16 13 9 13 3 8 3 13 22 23 25 3 7 5 4 3 4 4 7 10 7 5 6 6 2 6 6 9 11 5 0 6 8 8 8 8
23 23 24 24 24 21 16 6 2 4 10 8 2 11 5 6 14 11 19 17 4 4 8 7 7 17 19 13 1 6 5 7 2 3 3 7 9 20 10 5 9 10 8 10 11
24 23 22 23 26 23 23 9 8 1 6 20 20 11 14 3 7 8 23 10 8 15 7 7 24 9 9 9 7 3 5 5 3 3 2 5 11 13 10 8 9 11 10 12 8
24 23 22 23 24 24 26 27 22 12 5 6 17 20 6 12 4 14 19 11 15 17 19 19 4 17 11 12 14 15 11 3 1 1 1 5 14 9 7 5 6 8 10 8 11
25 24 23 21 19 24 24 25 20 10 5 8 10 9 15 6 16 7 14 11 7 23 17 16 20 9 5 15 16 15 8 6 5 3 5 2 11 9 2 7 6 9 9 9 9
26 24 24 25 6 20 16 23 20 8 7 9 16 9 14 20 9 14 16 9 14 10 11 15 12 18 9 17 16 7 8 14 5 5 2 5 3 4 2 5 6 8 9 9 11
28 28 25 24 28 19 25 24 17 7 9 5 10 15 16 19 19 7 8 5 1 12 20 26 3 14 14 10 18 7 7 5 3 4 9 18 9 23 9 8 5 6 9 9 8
29 28 28 29 21 23 28 13 8 11 2 5 9 14 26 21 28 12 21 20 13 6 14 16 8 2 7 7 6 9 11 3 7 8 14 9 8 22 1 3 7 6 9 10 7
29 26 28 31 32 29 25 9 14 11 7 3 7 9 26 21 23 32 11 17 24 19 5 13 11 19 5 8 9 20 16 6 9 6 9 7 11 10 8 13 20 16 19 7 7
25 28 26 30 32 33 11 15 9 5 10 7 3 10 13 23 8 25 34 7 23 26 17 10 11 6 6 7 17 12 16 8 5 2 3 5 7 8 8 7 9 10 6 8 4
24 12 25 31 34 24 10 22 5 5 4 12 9 6 11 17 18 19 26 33 5 22 14 5 7 7 19 6 11 13 10 7 7 7 7 4 4 9 2 7 6 7 6 6 5
16 3 13 29 35 8 13 6 5 2 3 5 3 1 4 7 17 15 10 17 18 18 18 3 3 3 13 17 19 6 10 7 3 4 6 3 7 8 13 7 7 7 8 9 8
5 8 11 39 13 3 12 8 8 5 3 4 3 3 2 6 6 19 17 23 23 14 25 9 4 5 13 15 20 22 19 17 7 9 6 1 9 3 7 7 8 9 8 6 7
4 6 14 26 12 6 4 4 5 4 5 6 5 4 6 2 5 6 21 10 12 24 17 15 5 8 3 2 1 14 18 17 17 2 13 9 9 5 5 6 8 10 8 7 7
4 3 4 6 1 5 6 4 5 1 5 4 5 6 3 7 7 7 10 9 12 21 28 19 14 7 14 2 7 10 20 18 20 14 13 14 17 13 4 8 8 6 7 8 7
2 4 4 4 11 7 6 10 16 7 3 6 2 7 9 6 9 12 12 19 17 17 21 17 22 24 23 9 4 11 22 26 23 26 17 21 18 24 13 11 12 13 8 8 7
5 4 2 3 10 8 12 7 14 10 8 4 4 11 11 10 14 13 3 5 8 12 14 17 15 20 21 23 19 6 18 20 25 24 25 20 12 21 9 7 7 11 9 8 7
4 4 5 6 7 7 7 12 13 8 4 7 16 5 8 21 18 13 3 4 8 12 17 15 10 15 17 28 25 24 26 21 19 22 25 22 27 15 7 14 15 10 9 11 7
Wind_Direction
270 268 267 269 271 272 277 262 260 258 267 273 270 280 294 306 301 292 258 246 237 253 268 280 301 326 340 25 40 125 57 193 219 168 169 324 125 348 271 119 58 311 241 322 168
268 269 268 268 265 265 269 265 272 261 263 266 267 271 288 312 312 272 259 258 232 238 248 242 44 38 359 329 28 95 131 216 217 301 329 315 103 214 119 128 261 292 239 24 168
268 270 273 268 263 264 261 268 262 270 261 256 259 265 265 323 322 260 356 295 253 229 220 166 145 139 168 172 205 164 193 199 245 227 347 346 350 312 137 198 220 206 276 140 175
261 266 269 269 267 260 263 260 267 262 267 259 250 249 233 150 243 96 46 8 273 220 210 178 124 144 160 190 205 156 231 187 217 169 359 315 315 324 205 224 128 244 206 170 191
258 257 258 260 260 262 263 260 261 264 259 261 247 232 187 214 247 248 300 335 263 193 193 161 156 148 178 187 154 177 214 213 267 302 260 314 256 253 244 254 42 101 168 200 209
261 259 255 256 254 260 265 266 267 263 258 255 255 222 191 235 251 263 279 295 274 184 194 173 203 191 156 191 169 214 201 233 275 244 250 226 251 175 262 237 168 170 215 217 214
265 253 250 253 253 252 254 265 268 269 263 251 247 237 217 217 241 230 8 265 317 202 164 201 99 74 137 155 244 149 246 306 231 239 249 160 287 229 208 194 201 231 238 234 237
264 256 249 253 252 254 253 254 258 266 269 262 253 245 259 223 233 234 309 273 286 214 209 207 209 34 221 270 24 193 116 149 256 186 236 126 257 178 217 220 246 235 241 248 253
264 257 249 249 253 255 252 256 259 263 268 265 261 211 264 185 208 230 240 259 6 174 204 163 141 188 316 121 42 348 209 200 287 201 168 187 270 235 221 202 243 263 259 237 264
264 257 249 245 245 246 250 248 260 253 245 253 241 187 217 203 179 203 212 215 212 142 127 134 119 182 195 177 208 184 203 240 210 214 222 214 255 261 245 213 250 264 280 275 244
260 254 249 241 239 240 234 229 242 242 210 207 213 233 114 170 188 182 180 165 196 182 186 173 199 215 199 204 33 157 183 198 232 235 197 238 247 266 261 236 256 255 252 259 263
256 254 247 245 237 231 225 204 207 0 244 224 252 241 236 180 169 182 167 154 176 202 143 191 227 199 160 187 207 184 207 212 281 277 190 318 273 254 258 238 217 233 230 243 251
254 249 243 242 239 232 222 218 207 244 265 233 216 233 215 194 221 190 180 157 180 190 199 206 269 174 170 191 200 220 215 165 147 10 314 355 289 241 245 245 196 224 224 226 225
252 247 236 234 240 227 227 227 210 211 244 217 198 239 200 236 220 185 208 175 185 201 189 222 220 164 174 197 188 221 175 148 175 97 245 123 274 241 182 243 234 231 242 245 245
245 243 232 217 227 191 209 207 191 154 242 202 192 180 179 198 141 188 200 229 199 167 165 213 174 202 204 212 187 214 143 200 163 165 32 234 286 256 49 285 271 268 245 240 234
243 244 234 225 222 212 199 186 157 207 232 183 162 179 159 189 212 139 159 184 255 203 203 216 177 183 204 169 184 138 79 77 130 157 240 235 196 274 245 225 214 228 247 245 255
238 241 234 217 212 203 187 168 211 213 106 198 182 173 189 190 205 198 185 187 197 194 198 216 202 224 151 149 153 163 145 160 214 209 234 167 173 243 169 232 176 227 268 270 257
238 238 236 226 218 201 180 205 220 189 179 212 197 181 195 188 210 204 219 208 202 191 181 196 202 207 184 184 185 195 184 172 198 202 234 146 219 241 218 236 256 244 252 269 271
234 232 235 229 211 193 191 215 215 155 172 144 67 197 207 205 186 206 209 203 205 188 204 208 222 156 197 183 166 187 210 182 105 52 70 211 288 297 243 228 249 243 274 289 317
224 223 240 220 201 185 225 215 171 186 122 205 175 193 188 196 211 192 203 220 229 206 222 220 224 187 197 149 206 183 160 190 206 197 224 237 259 231 204 243 249 216 163 137 128
211 226 214 198 194 201 208 202 126 182 120 146 142 295 209 236 217 210 210 214 192 200 207 190 225 209 151 200 193 160 191 209 172 197 206 227 246 201 233 211 196 156 168 158 148
168 229 225 176 192 184 201 151 138 173 89 94 106 103 244 219 252 224 223 209 184 175 209 197 189 197 203 201 204 200 203 196 192 213 217 208 242 238 233 212 167 179 173 160 143
187 208 203 162 195 180 94 95 157 119 166 147 151 208 179 226 299 239 231 222 186 192 196 186 215 187 170 294 306 217 212 206 223 56 203 215 240 216 192 159 181 170 183 169 157
166 169 198 179 160 113 133 146 144 9 148 133 164 178 151 259 176 282 322 254 209 201 208 194 230 232 229 229 137 199 214 212 210 223 223 221 242 244 234 203 179 168 176 176 175
189 197 194 180 189 161 163 175 193 166 231 158 62 164 178 224 240 230 248 264 268 212 204 209 227 234 240 248 210 206 216 215 213 219 217 226 219 245 216 195 187 186 173 159 141
135 140 69 119 138 147 173 192 192 185 152 207 187 191 184 200 222 260 146 212 229 199 205 211 231 228 239 235 230 216 222 221 218 228 232 240 237 237 218 172 189 193 171 156 155
167 97 109 149 134 152 187 193 199 139 233 191 210 188 204 227 234 262 216 231 278 254 205 209 219 229 238 234 234 238 230 218 226 227 226 224 231 226 180 191 201 199 176 166 143